• In Portugal
  • List of Countries
  • For 7 days
  • Water Temperature
  • Satellite Maps
  • Weather Map
  • Weather Widgets
  • user-avatar
    Login

    Hourly Weather Slobozia

    Today, 16 December, Saturday

    Time Temperature Precipitation Wind Pressure Humidity
    00:00 +8°C° 0 mm 5 mps 755 mmHg 83%
    01:00 +8°C° 0 mm 6 mps 754 mmHg 86%
    02:00 +8°C° 0 mm 6 mps 754 mmHg 88%
    03:00 +8°C° 0 mm 6 mps 753 mmHg 89%
    04:00 +8°C° 0 mm 7 mps 753 mmHg 89%
    05:00 +9°C° 0 mm 7 mps 752 mmHg 90%
    06:00 +9°C° 0 mm 8 mps 752 mmHg 90%
    07:00 +9°C° 0 mm 8 mps 752 mmHg 90%
    08:00 +9°C° 0 mm 8 mps 751 mmHg 89%
    09:00 +10°C° 0 mm 8 mps 751 mmHg 86%
    10:00 +10°C° 0 mm 8 mps 751 mmHg 82%
    11:00 +11°C° 0 mm 8 mps 751 mmHg 78%
    12:00 +12°C° 0 mm 8 mps 751 mmHg 74%
    13:00 +12°C° 0 mm 7 mps 751 mmHg 70%
    14:00 +14°C° 0 mm 7 mps 751 mmHg 66%
    15:00 +13°C° 0 mm 6 mps 751 mmHg 68%
    16:00 +13°C° 0 mm 5 mps 751 mmHg 70%
    17:00 +12°C° 0 mm 5 mps 752 mmHg 72%
    18:00 +12°C° 0 mm 5 mps 752 mmHg 71%
    19:00 +11°C° 0 mm 4 mps 753 mmHg 69%
    20:00 +11°C° 0 mm 4 mps 753 mmHg 68%
    21:00 +10°C° 0 mm 4 mps 754 mmHg 68%
    22:00 +10°C° 0 mm 4 mps 755 mmHg 68%
    23:00 +8°C° 0 mm 4 mps 756 mmHg 67%

    Tomorrow, 17 December, Sunday

    Time Temperature Precipitation Wind Pressure Humidity
    00:00 +7°C° 0.4 mm 4 mps 756 mmHg 69%
    01:00 +7°C° 0.4 mm 4 mps 757 mmHg 71%
    02:00 +6°C° 0.4 mm 4 mps 757 mmHg 72%
    03:00 +5°C° 0.2 mm 5 mps 757 mmHg 72%
    04:00 +5°C° 0.2 mm 5 mps 757 mmHg 73%
    05:00 +4°C° 0.2 mm 6 mps 757 mmHg 73%
    06:00 +3°C° 0.7 mm 6 mps 758 mmHg 74%
    07:00 +3°C° 0.7 mm 6 mps 758 mmHg 75%
    08:00 +3°C° 0.7 mm 6 mps 758 mmHg 76%
    09:00 +3°C° 0.4 mm 6 mps 758 mmHg 76%
    10:00 +3°C° 0.4 mm 6 mps 758 mmHg 76%
    11:00 +3°C° 0.4 mm 6 mps 758 mmHg 76%
    12:00 +3°C° 0 mm 6 mps 758 mmHg 74%
    13:00 +4°C° 0 mm 7 mps 758 mmHg 72%
    14:00 +4°C° 0 mm 7 mps 758 mmHg 71%
    15:00 +3°C° 0 mm 6 mps 758 mmHg 72%
    16:00 +3°C° 0 mm 6 mps 758 mmHg 74%
    17:00 +3°C° 0 mm 6 mps 759 mmHg 75%
    18:00 +2°C° 0 mm 6 mps 759 mmHg 75%
    19:00 +2°C° 0 mm 6 mps 759 mmHg 75%
    20:00 +2°C° 0 mm 6 mps 759 mmHg 75%
    21:00 +2°C° 0 mm 6 mps 760 mmHg 75%
    22:00 +1°C° 0 mm 6 mps 760 mmHg 75%
    23:00 +1°C° 0 mm 6 mps 760 mmHg 75%

    Day after tomorrow, 18 December, Monday

    Time Temperature Precipitation Wind Pressure Humidity
    00:00 +1°C° 0 mm 6 mps 761 mmHg 75%
    01:00 +1°C° 0 mm 6 mps 761 mmHg 76%
    02:00 +1°C° 0 mm 6 mps 761 mmHg 76%
    03:00 -1°C° 0 mm 6 mps 761 mmHg 76%
    04:00 -1°C° 0 mm 6 mps 761 mmHg 76%
    05:00 -1°C° 0 mm 6 mps 762 mmHg 76%
    06:00 -1°C° 0 mm 6 mps 762 mmHg 76%
    07:00 0°C° 0 mm 5 mps 763 mmHg 77%
    08:00 -1°C° 0 mm 5 mps 763 mmHg 77%
    09:00 0°C° 0 mm 5 mps 763 mmHg 75%
    10:00 0°C° 0 mm 5 mps 764 mmHg 72%
    11:00 +1°C° 0 mm 5 mps 764 mmHg 69%
    12:00 +1°C° 0 mm 5 mps 764 mmHg 68%
    13:00 +1°C° 0 mm 5 mps 764 mmHg 66%
    14:00 +1°C° 0 mm 5 mps 764 mmHg 65%
    15:00 +1°C° 0 mm 4 mps 764 mmHg 68%
    16:00 0°C° 0 mm 4 mps 764 mmHg 71%
    17:00 0°C° 0 mm 3 mps 764 mmHg 74%
    18:00 0°C° 0 mm 3 mps 765 mmHg 75%
    19:00 0°C° 0 mm 3 mps 765 mmHg 77%
    20:00 -1°C° 0 mm 3 mps 766 mmHg 78%
    21:00 -1°C° 0 mm 3 mps 766 mmHg 78%
    22:00 -1°C° 0 mm 3 mps 766 mmHg 78%
    23:00 -1°C° 0 mm 3 mps 767 mmHg 77%

    19 December, Tuesday

    Time Temperature Precipitation Wind Pressure Humidity
    00:00 -1°C° 0 mm 3 mps 767 mmHg 77%
    01:00 -1°C° 0 mm 3 mps 767 mmHg 77%
    02:00 -1°C° 0 mm 3 mps 767 mmHg 76%
    03:00 -2°C° 0 mm 4 mps 768 mmHg 76%
    04:00 -2°C° 0 mm 4 mps 768 mmHg 76%
    05:00 -2°C° 0 mm 4 mps 768 mmHg 76%
    06:00 -2°C° 0 mm 4 mps 768 mmHg 76%
    07:00 -1°C° 0 mm 3 mps 769 mmHg 76%
    08:00 -2°C° 0 mm 3 mps 769 mmHg 76%
    09:00 -2°C° 0 mm 4 mps 770 mmHg 72%
    10:00 -1°C° 0 mm 4 mps 770 mmHg 69%
    11:00 -1°C° 0 mm 5 mps 770 mmHg 66%
    12:00 -1°C° 0 mm 5 mps 770 mmHg 65%
    13:00 -1°C° 0 mm 5 mps 770 mmHg 64%
    14:00 0°C° 0 mm 5 mps 770 mmHg 63%
    15:00 -1°C° 0 mm 4 mps 770 mmHg 66%
    16:00 -1°C° 0 mm 4 mps 770 mmHg 69%
    17:00 -1°C° 0 mm 3 mps 771 mmHg 71%
    18:00 -1°C° 0 mm 3 mps 771 mmHg 71%
    19:00 -1°C° 0 mm 3 mps 771 mmHg 72%
    20:00 -1°C° 0 mm 3 mps 771 mmHg 72%
    21:00 -1°C° 0 mm 3 mps 772 mmHg 72%
    22:00 -1°C° 0 mm 3 mps 772 mmHg 72%
    23:00 -2°C° 0 mm 3 mps 772 mmHg 72%

    20 December, Wednesday

    Time Temperature Precipitation Wind Pressure Humidity
    00:00 -2°C° 0 mm 3 mps 772 mmHg 71%
    01:00 -2°C° 0 mm 3 mps 772 mmHg 70%
    02:00 -2°C° 0 mm 3 mps 772 mmHg 69%
    03:00 -2°C° 0 mm 3 mps 772 mmHg 68%
    04:00 -2°C° 0 mm 3 mps 772 mmHg 67%
    05:00 -2°C° 0 mm 3 mps 771 mmHg 66%
    06:00 -2°C° 0 mm 3 mps 772 mmHg 65%
    07:00 -2°C° 0 mm 3 mps 772 mmHg 64%
    08:00 -2°C° 0 mm 2 mps 772 mmHg 64%
    09:00 -2°C° 0 mm 3 mps 772 mmHg 60%
    10:00 -1°C° 0 mm 3 mps 772 mmHg 56%
    11:00 -1°C° 0 mm 3 mps 772 mmHg 53%
    12:00 -1°C° 0 mm 3 mps 772 mmHg 52%
    13:00 -2°C° 0 mm 4 mps 772 mmHg 51%
    14:00 -2°C° 0 mm 4 mps 772 mmHg 51%
    15:00 -1°C° 0 mm 3 mps 772 mmHg 53%
    16:00 -1°C° 0 mm 2 mps 772 mmHg 55%
    17:00 -2°C° 0 mm 2 mps 772 mmHg 58%
    18:00 -2°C° 0 mm 2 mps 772 mmHg 58%
    19:00 0°C° 0 mm 1 mps 772 mmHg 57%
    20:00 0°C° 0 mm 1 mps 773 mmHg 57%
    21:00 -2°C° 0 mm 2 mps 773 mmHg 59%
    22:00 -2°C° 0 mm 2 mps 773 mmHg 60%
    23:00 -3°C° 0 mm 2 mps 772 mmHg 62%

    21 December, Thursday

    Time Temperature Precipitation Wind Pressure Humidity
    00:00 -3°C° 0 mm 2 mps 772 mmHg 63%
    01:00 -3°C° 0 mm 2 mps 772 mmHg 64%
    02:00 -3°C° 0 mm 2 mps 772 mmHg 66%
    03:00 -3°C° 0 mm 2 mps 772 mmHg 66%
    04:00 -3°C° 0 mm 2 mps 772 mmHg 67%
    05:00 -3°C° 0 mm 2 mps 772 mmHg 68%
    06:00 -3°C° 0 mm 2 mps 772 mmHg 68%
    07:00 -3°C° 0 mm 2 mps 772 mmHg 68%
    08:00 -1°C° 0 mm 1 mps 772 mmHg 68%
    09:00 -2°C° 0 mm 2 mps 772 mmHg 64%
    10:00 -1°C° 0 mm 2 mps 772 mmHg 61%
    11:00 -1°C° 0 mm 2 mps 771 mmHg 57%
    12:00 +1°C° 0 mm 2 mps 771 mmHg 55%
    13:00 +1°C° 0 mm 2 mps 771 mmHg 53%
    14:00 +1°C° 0 mm 2 mps 770 mmHg 51%
    15:00 +1°C° 0 mm 1 mps 770 mmHg 54%
    16:00 0°C° 0 mm 1 mps 770 mmHg 57%
    17:00 0°C° 0 mm 1 mps 770 mmHg 60%
    18:00 -1°C° 0 mm 1 mps 770 mmHg 61%
    19:00 -1°C° 0 mm 1 mps 769 mmHg 61%
    20:00 -1°C° 0 mm 1 mps 769 mmHg 62%
    21:00 -3°C° 0 mm 2 mps 769 mmHg 62%
    22:00 -3°C° 0 mm 2 mps 769 mmHg 63%
    23:00 -3°C° 0 mm 2 mps 768 mmHg 63%
    Show more